Wind_Speed
8 8 9 16 16 15 15 14 17 18 18 18 17 15 15 15 11 13 13 12 13 13 10 20 21 25 27 28 30 35 33 27 24 24 23 14 14 16 17 15 13 13 13 15
9 12 12 14 14 12 16 18 16 15 16 15 17 19 16 12 13 12 7 6 10 8 17 18 26 29 31 29 29 35 33 31 28 28 25 21 22 18 17 16 14 15 14 15
11 12 10 16 14 14 15 16 15 17 14 17 14 18 17 13 14 13 10 9 8 12 11 18 23 31 28 24 20 27 29 31 30 28 22 21 20 18 17 18 17 17 15 14
8 8 13 12 14 14 12 17 14 11 15 8 13 12 15 16 16 16 13 9 6 9 7 12 9 16 23 19 16 25 28 27 24 22 27 29 26 23 21 20 19 18 16 16
11 12 9 11 13 15 15 4 9 16 14 11 15 9 12 13 17 17 13 11 11 8 6 7 14 16 21 20 26 25 26 27 22 24 23 22 24 21 19 18 18 17 17 15
11 1 4 7 13 15 12 6 8 10 5 9 12 3 6 9 16 15 9 10 10 12 10 7 8 22 20 25 25 24 25 25 21 25 22 22 20 21 22 20 19 17 16 14
11 9 11 6 14 5 6 1 4 3 1 5 8 5 11 18 19 3 18 13 13 13 9 7 6 10 16 18 23 22 26 22 22 21 20 22 20 20 20 18 17 16 13 12
11 9 12 9 10 7 13 4 2 4 2 3 5 5 4 18 16 14 18 13 15 10 9 8 8 11 15 13 14 17 20 25 20 21 19 19 19 18 17 16 12 16 13 13
9 6 14 6 5 3 7 4 6 3 4 3 4 5 9 17 3 9 15 9 9 9 8 9 8 15 16 14 13 16 21 22 19 19 19 17 16 13 11 11 9 11 11 10
4 8 11 6 6 4 3 8 3 1 4 5 5 12 7 7 7 10 12 10 9 10 9 7 7 13 15 16 15 19 20 20 21 19 17 16 14 12 12 12 12 10 11 10
11 5 11 8 3 7 1 3 2 2 5 3 3 6 9 8 8 11 11 9 8 8 7 8 9 19 20 19 22 20 20 19 18 17 18 18 17 14 13 14 12 11 9 7
7 4 7 7 5 1 6 5 4 2 4 4 3 5 8 9 12 12 10 8 7 7 8 8 12 17 18 18 18 18 19 19 21 19 18 18 15 14 13 11 10 7 5 4
6 5 7 8 2 2 5 9 7 6 4 10 3 4 4 9 10 9 9 8 7 8 8 7 8 12 16 17 20 20 21 20 18 18 17 15 13 11 11 9 7 3 2 3
1 5 9 9 12 10 8 8 6 4 1 2 0 5 9 9 9 9 8 8 7 7 7 7 7 10 18 19 21 20 18 16 16 16 15 13 11 9 7 5 2 2 4 5
5 6 11 14 18 6 7 7 7 4 4 3 6 7 7 6 4 9 9 9 8 7 8 7 7 7 17 19 19 19 16 14 14 14 13 11 9 6 3 1 2 3 5 6
7 6 13 15 14 5 7 6 7 5 6 2 5 7 6 6 7 8 9 8 8 8 8 7 8 11 15 18 18 16 13 13 12 13 12 8 5 3 0 2 5 6 7 8
4 4 6 5 14 11 3 5 6 4 7 6 3 4 5 7 8 7 7 7 8 8 8 8 8 10 15 17 15 13 12 9 11 11 9 5 2 1 2 5 6 8 9 11
5 6 3 5 10 2 3 5 4 4 7 7 5 7 6 7 8 8 9 2 9 9 8 8 11 16 16 13 15 15 11 9 8 7 5 2 1 3 5 6 7 9 11 12
6 3 4 2 4 3 4 4 3 4 4 5 5 5 6 5 7 7 7 9 8 9 10 16 19 16 15 15 13 11 10 8 5 3 4 4 4 5 6 8 9 10 12 13
5 6 3 4 1 2 3 3 3 2 1 5 3 4 3 4 0 1 4 8 10 18 19 19 18 17 16 12 10 10 8 3 5 8 6 5 5 6 7 8 10 12 13 15
3 4 6 6 4 2 3 3 0 1 1 4 5 5 5 3 2 6 7 8 14 17 18 17 18 18 13 10 7 8 5 11 8 4 4 5 5 7 8 10 11 12 14 15
2 2 3 4 3 3 3 2 3 1 2 3 4 5 7 7 7 7 8 7 11 13 14 18 18 14 11 7 4 6 11 7 3 3 4 5 6 8 11 11 15 12 13 15
1 1 2 2 1 2 3 4 4 3 1 3 3 5 8 8 7 7 7 7 9 13 14 17 15 12 10 8 7 10 7 4 4 6 7 5 8 11 12 16 13 14 12 14
6 4 2 5 3 4 6 4 4 3 2 2 3 3 7 8 9 8 7 7 8 13 13 13 12 12 10 7 6 6 6 6 7 9 9 10 11 11 13 14 13 12 14 15
6 3 4 6 7 4 7 4 4 2 2 2 4 2 6 9 8 7 7 7 13 13 12 10 11 10 9 5 6 7 7 7 9 11 13 13 12 13 13 12 12 15 12 12
8 8 5 6 7 3 3 6 5 4 3 3 6 5 5 8 8 9 7 14 16 13 12 12 10 9 7 7 9 8 7 8 9 11 13 13 14 15 12 14 15 14 14 21
Wind_Direction
209 284 279 296 302 306 313 294 288 290 294 298 291 288 229 228 239 256 257 188 194 174 174 136 149 159 159 182 175 172 170 177 178 159 154 173 194 175 179 176 182 184 183 175
333 309 336 333 310 287 286 285 278 286 284 274 281 281 274 223 227 232 237 205 199 177 180 161 177 190 202 177 176 165 169 178 180 168 169 191 201 182 183 181 180 185 182 187
317 323 328 321 306 300 288 286 281 278 282 293 287 268 270 250 228 192 204 234 204 172 205 174 186 200 177 158 148 156 178 186 183 179 173 171 184 178 179 181 183 184 187 191
299 296 308 316 305 331 301 275 294 296 293 263 267 271 245 242 226 202 195 201 160 192 203 170 145 148 151 165 176 171 180 183 184 176 174 178 176 169 178 183 183 184 190 195
318 343 330 311 331 320 293 10 315 295 262 270 265 275 258 274 250 180 199 175 176 185 150 165 160 168 171 191 172 171 166 174 175 176 184 184 166 175 180 181 182 188 192 199
340 345 323 340 301 300 272 344 2 318 303 273 253 188 289 269 276 181 178 196 183 141 132 113 106 188 191 169 160 171 167 160 169 173 186 169 168 176 166 174 180 188 191 193
333 19 326 279 341 334 18 116 20 307 276 249 13 123 252 317 307 204 173 198 178 132 128 132 138 101 106 131 159 151 157 165 171 180 171 176 173 159 165 167 171 178 174 178
352 335 358 324 329 303 310 120 99 298 304 287 156 213 325 271 279 31 57 173 119 116 107 120 107 113 124 120 131 137 143 146 157 166 165 171 159 160 167 168 175 173 179 174
324 310 309 318 318 328 323 41 153 254 259 251 77 334 260 237 126 107 72 64 77 91 97 98 117 118 130 142 150 149 142 145 161 157 156 153 144 146 142 138 141 130 135 141
313 299 294 344 255 165 287 148 302 137 344 36 138 50 42 57 59 91 88 77 69 69 79 102 106 124 128 129 133 132 137 142 140 140 145 145 139 138 135 136 129 134 142 136
323 308 294 298 351 332 227 299 130 234 15 28 19 26 34 20 95 84 85 87 93 94 99 88 80 88 102 107 113 118 125 130 140 145 137 129 126 130 130 128 132 130 127 140
359 280 289 306 28 21 266 270 313 89 39 329 289 50 44 46 71 79 88 90 85 92 99 91 93 104 117 121 124 129 137 137 130 130 126 123 127 126 125 128 132 127 142 202
341 334 321 339 168 288 355 349 357 356 105 48 51 306 62 72 85 92 97 99 98 94 95 106 115 119 122 121 123 118 121 123 127 128 120 118 122 126 124 127 125 143 194 232
236 266 288 284 324 315 313 332 345 341 94 75 232 38 31 36 106 102 108 110 111 117 127 113 103 103 114 117 116 116 118 119 119 120 120 120 119 113 112 114 128 233 251 266
11 285 306 316 301 330 308 318 324 340 359 359 327 67 45 28 40 120 122 122 125 127 111 110 112 109 112 111 113 114 116 119 119 116 114 104 105 102 100 118 248 266 277 278
322 285 309 304 289 246 302 17 357 10 20 341 21 68 89 21 88 119 128 133 134 125 121 117 107 109 113 112 111 116 119 121 122 116 108 104 98 101 75 298 296 295 293 293
278 289 333 280 339 315 214 17 3 359 41 344 31 105 23 62 49 35 125 140 141 137 129 121 113 116 116 116 124 128 118 111 109 114 112 112 99 2 323 312 303 300 299 294
258 319 273 276 306 225 98 63 34 17 44 13 359 62 68 85 55 37 18 33 132 127 120 114 111 99 102 111 103 101 106 101 99 100 118 137 19 341 328 327 325 321 320 321
206 249 279 271 317 223 158 47 32 354 52 38 35 79 97 121 115 39 15 9 83 102 106 106 107 109 102 96 99 105 97 88 86 89 50 47 24 351 345 331 320 320 317 315
189 220 295 325 341 298 81 98 39 342 74 46 34 69 104 176 314 53 56 59 63 80 99 108 113 109 103 107 112 105 95 95 73 58 26 350 339 326 313 321 332 323 316 313
189 209 214 244 257 272 75 78 35 95 208 45 16 39 38 78 100 132 94 79 90 95 102 111 107 105 104 103 104 97 82 74 53 25 346 331 326 328 329 324 314 311 314 312
283 231 194 209 252 272 3 172 22 110 141 51 54 69 90 111 121 107 98 96 97 107 111 105 106 104 100 94 65 96 85 64 31 343 316 313 329 344 332 331 330 323 321 319
251 50 282 305 64 129 73 86 103 134 347 34 45 91 133 142 133 125 124 118 127 118 115 115 113 110 102 80 51 62 69 39 353 327 322 4 347 336 338 329 327 330 330 331
299 59 232 354 14 186 120 129 114 79 48 13 115 130 145 149 140 141 136 132 123 123 117 124 130 127 104 80 68 62 33 12 346 339 353 354 353 343 342 335 334 334 334 326
279 343 285 295 278 229 168 187 141 165 146 173 116 135 167 138 145 143 138 134 133 125 128 118 101 90 88 73 70 54 27 7 2 2 356 356 356 346 331 330 333 333 335 343
236 254 245 243 266 304 117 142 65 2 344 185 158 151 151 134 143 135 135 135 130 133 119 105 97 93 82 69 69 49 31 20 15 1 355 356 345 333 339 337 334 328 335 332
Height
763 772 779 767 760 755 758 762 763 753 740 742 739 733 724 719 721 722 720 715 721 722 728 736 741 747 749 759 764 766 773 779 788 798 802 813 816 817 818 820 823 827 830 834
768 776 762 760 757 760 761 761 759 751 741 743 740 735 720 714 716 716 716 715 724 720 725 733 741 748 751 755 753 759 764 775 782 792 797 802 814 815 818 819 822 826 829 832
779 769 760 761 760 762 760 759 756 754 744 738 740 741 729 711 707 708 711 711 710 716 720 725 737 743 747 753 755 759 767 774 779 787 794 803 811 814 816 817 820 824 827 830
773 760 763 764 763 758 768 749 746 754 755 763 739 759 729 715 709 704 710 712 717 719 719 722 728 736 743 750 758 762 769 776 779 787 794 798 802 806 811 814 818 821 825 829
771 767 766 769 761 757 760 755 756 753 751 752 748 757 729 720 713 706 712 708 711 717 722 722 727 733 741 751 754 761 769 775 777 784 793 794 799 804 809 813 816 820 823 827
764 757 759 761 755 749 742 753 759 758 755 768 745 754 747 727 714 702 704 707 711 713 723 729 732 736 740 746 753 760 768 773 778 783 790 793 798 803 807 811 815 819 822 825
764 766 760 755 758 747 751 766 784 783 771 764 749 762 746 729 722 700 701 719 708 716 724 731 736 738 742 747 754 761 766 772 779 784 789 794 798 802 806 809 813 817 820 823
787 784 765 755 759 763 755 767 785 788 765 761 759 764 756 738 723 697 695 694 708 716 725 732 738 743 747 750 756 761 766 773 779 785 790 796 798 802 806 808 812 815 818 821
790 784 758 750 750 755 757 771 775 784 774 766 764 756 747 729 717 716 715 723 726 729 733 738 743 747 751 756 759 764 769 775 782 787 792 795 797 801 804 807 810 814 817 820
782 790 760 748 743 749 758 767 776 777 768 776 755 740 741 726 724 721 728 734 737 737 741 745 748 752 755 759 763 767 772 777 783 789 794 796 799 802 807 808 811 815 818 820
774 780 771 751 753 755 759 757 763 773 775 774 762 757 731 731 727 732 738 741 744 747 750 751 754 757 760 764 767 771 776 782 787 792 794 797 800 805 807 810 814 817 819 821
777 783 784 757 744 741 747 752 749 779 781 786 782 768 733 731 734 739 745 750 751 753 755 757 761 764 767 770 774 778 782 787 790 793 797 799 803 806 809 813 815 817 818 820
788 784 787 768 760 747 752 746 744 746 765 771 785 774 739 737 743 747 754 757 758 760 762 764 766 769 772 775 779 783 786 790 794 797 799 802 806 809 811 813 815 816 818 820
789 787 791 794 774 763 762 752 747 750 771 766 762 755 751 745 748 753 757 761 762 764 766 767 770 772 775 780 784 787 791 794 797 799 802 805 808 810 812 813 815 816 818 819
787 790 779 770 761 754 756 754 750 754 754 763 759 761 757 751 747 752 756 761 765 767 769 772 774 777 780 783 787 791 795 798 800 802 805 807 810 812 813 815 816 816 817 817
787 790 781 770 752 752 756 751 751 749 752 748 752 762 751 749 747 754 759 762 766 770 771 774 777 780 783 787 791 795 798 800 803 804 807 809 811 813 814 814 815 815 816 816
791 787 787 782 758 752 763 762 757 753 756 760 762 759 753 757 756 760 758 761 765 769 773 776 780 783 787 790 794 797 800 802 804 806 808 810 812 813 813 814 815 815 814 813
790 792 787 789 769 777 763 755 757 759 761 762 758 760 760 763 764 764 763 760 763 768 773 778 782 786 790 793 796 798 801 804 806 808 809 810 812 813 813 813 813 813 812 811
785 792 794 794 785 763 759 760 764 769 770 764 763 762 765 765 769 774 769 765 765 769 774 780 784 789 793 796 799 801 803 805 807 808 810 811 811 812 812 812 812 811 811 810
781 786 796 788 790 784 765 760 758 759 778 762 761 762 762 763 774 782 774 773 774 776 780 784 789 793 796 800 802 803 805 807 808 809 810 811 811 811 811 810 810 810 809 808
789 790 798 795 792 767 759 759 759 774 785 765 763 763 764 772 777 777 777 779 781 783 786 790 793 796 800 802 804 805 806 807 809 810 810 810 810 810 810 809 808 808 806 805
776 783 788 781 784 786 757 760 767 770 761 762 763 765 773 776 777 779 782 784 786 788 791 793 796 800 803 804 805 806 807 809 810 810 810 810 809 809 808 807 806 805 803 802
783 775 784 776 774 761 758 761 760 761 763 762 763 765 770 775 778 782 786 788 790 792 794 797 799 802 805 806 807 807 809 809 810 810 809 808 808 808 806 806 804 802 801 800
767 767 775 773 757 755 758 760 760 760 760 760 761 763 767 773 777 782 785 789 792 795 797 799 801 803 805 807 808 809 810 810 810 809 808 807 807 806 805 804 803 801 799 798
777 770 769 769 759 754 755 755 758 759 759 760 761 762 765 770 776 780 785 789 793 796 799 800 802 804 806 808 809 809 810 810 809 808 808 807 806 805 804 803 801 800 799 797
773 771 774 769 758 758 754 754 755 758 758 758 761 763 763 767 774 779 784 789 793 797 800 802 804 806 808 809 809 810 811 811 810 809 809 808 806 805 803 801 799 799 797 795